SCP
-0 -0 0 0 -0 0 -0 -0 -0 -0 0 0 -0 0 -0 -0 0 0 0 0 0 0 0 0 0 0 -0 0 -0 -0 -0 -0 -0 -0 -0 0 0 0 0 0 0 0 -0 -0 0 0 0 0 0
0 -0 0 0 0 -0 -0 0 0 -0 0 -0 -0 0 0 0 0 0 0 0 0 0 0 0 0 0 -0 0 -0 -0 -0 -0 -0 -0 0 0 0 0 0 0 0 -0 0 -0 0 -0 -0 0 0
-0 -0 0 -0 -0 -0 -0 -0 -0 -0 0 0 0 0 0 0 0 0 0 0 0 0 0 0 0 0 -0 0 0 -0 -0 -0 -0 -0 0 0 0 0 0 0 0 -0 -0 0 -0 -0 -0 0 0
0 0 0 -0 -0 -0 -0 -0 0 -0 0 0 0 0 0 0 0 0 -0 0 -0 0 0 0 -0 -0 -0 -0 -0 -0 -0 -0 0 -0 0 0 0 0 0 0 0 0 0 0 0 0 -0 0 0
0 0 -0 -0 -0 0 -0 0 0 0 0 0 0 0 0 0 -0 -0 -0 0 0 0 -0 -0 0 -0 -0 -0 -0 -0 -0 -0 0 0 0 0 0 0 0 0 0 0 0 0 0 0 0 0 0
0 0 0 -0 -0 0 0 0 0 0 -0 0 0 0 0 0 0 -0 0 0 0 0 0 0 -0 0 -0 -0 -0 -0 -0 -0 0 0 0 0 0 0 0 0 0 0 0 0 -0 0 0 0 0
0 0 0 0 0 0 0 0 0 0 0 0 0 0 0 0 0 -0 0 0 0 0 0 0 0 -0 -0 -0 -0 -0 0 0 0 0 0 0 0 0 0 0 -0 0 0 0 -0 0 0 0 0
0 0 0 0 0 0 0 0 0 0 0 -0 0 0 -0 -0 -0 -0 0 0 0 0 0 -0 0 0 -0 0 -0 -0 -0 -0 0 0 0 0 0 0 0 0 -0 -0 0 0 -0 0 0 0 0
0 0 0 0 0 0 0 0 0 0 0 0 0 -0 -0 -0 0 -0 -0 -0 0 0 0 0 0 -0 -0 0 -0 0 -0 -0 0 0 0 0 0 0 0 0 0 0 0 0 0 0 0 0 0
0 0 0 0 0 0 0 0 0 0 0 0 0 -0 0 -0 0 0 -0 -0 0 0 0 0 -0 -0 0 0 0 0 0 0 0 0 0 0 0 0 0 0 0 0 0 0 0 0 0 0 0
0 0 0 0 0 0 0 0 0 0 0 0 0 0 -0 -0 -0 0 0 0 0 -0 -0 0 0 0 0 -0 0 0 0 0 0 0 0 0 0 0 0 0 0 0 0 0 0 0 0 0 0
0 0 0 0 0 0 0 0 0 0 0 0 -0 -0 -0 -0 -0 0 0 0 0 0 0 -0 -0 -0 -0 0 -0 -0 0 0 0 0 0 0 0 0 0 0 0 0 0 0 0 0 0 0 0
-0 0 0 0 0 0 -0 -0 0 0 0 -0 -0 -0 -0 -0 0 0 0 0 0 0 -0 -0 -0 -0 -0 -0 -0 -0 -0 0 0 0 0 0 0 0 0 0 0 0 0 0 0 0 0 -0 0
0 0 0 0 0 0 0 0 0 -0 -0 -0 -0 -0 -0 -0 -0 0 0 0 0 0 0 -0 -0 -0 -0 -0 -0 -0 -0 0 0 0 0 0 0 0 0 0 0 0 0 0 -0 -0 -0 -0 0
0 -0 -0 0 0 0 0 0 0 0 -0 -0 -0 -0 -0 -0 -0 -0 -0 -0 -0 0 0 0 -0 0 -0 -0 -0 0 -0 -0 0 0 0 0 0 0 0 0 0 0 0 0 -0 -0 -0 -0 0
0 0 0 0 0 0 0 0 0 0 0 -0 -0 -0 -0 -0 -0 -0 -0 -0 -0 -0 -0 -0 0 0 -0 -0 -0 -0 0 0 0 0 0 0 0 0 0 0 -0 -0 -0 -0 -0 -0 -0 0 0
-0 0 0 0 0 0 0 0 0 0 -0 -0 0 0 -0 0 0 0 0 -0 -0 -0 -0 -0 0 0 0 -0 -0 -0 -0 -0 0 -0 0 0 0 0 0 -0 -0 -0 -0 -0 -0 -0 -0 0 0
-0 0 0 0 0 0 0 0 0 -0 0 -0 0 0 0 0 0 0 0 -0 -0 -0 -0 -0 -0 0 0 0 -0 -0 -0 -0 -0 -0 0 0 0 0 0 0 0 0 0 -0 -0 -0 -0 -0 -0
-0 0 0 0 0 0 0 -0 0 -0 0 0 0 0 0 0 0 0 0 0 0 0 -0 -0 -0 0 0 0 0 -0 0 0 0 0 0 0 0 0 0 0 -0 -0 0 -0 -0 0 -0 -0 0
0 0 -0 0 0 -0 0 0 -0 0 0 0 0 0 0 0 0 0 0 0 -0 0 0 0 0 -0 0 0 0 0 0 0 0 0 0 0 0 0 0 0 0 0 -0 -0 -0 0 0 0 0
0 0 -0 -0 -0 -0 0 0 -0 -0 0 0 0 0 0 0 0 0 0 0 0 0 0 -0 0 0 0 0 0 0 0 0 0 0 0 -0 -0 0 0 0 0 0 -0 -0 -0 -0 0 0 0
0 0 -0 -0 0 -0 -0 0 0 -0 -0 0 0 0 0 0 0 0 0 0 0 0 0 0 0 0 0 0 0 0 0 0 0 0 0 0 -0 -0 0 0 -0 0 -0 -0 -0 -0 0 0 0
-0 -0 -0 0 0 0 0 -0 -0 -0 -0 -0 0 0 0 0 0 0 0 0 0 0 0 0 0 0 0 0 0 0 0 0 0 -0 -0 -0 -0 0 0 0 0 0 0 0 0 0 0 0 0
0 0 -0 0 0 0 0 0 0 0 -0 -0 0 0 0 0 0 0 0 0 0 0 0 0 0 0 0 0 0 0 0 0 0 0 0 0 0 0 0 0 0 0 0 0 0 0 0 0 0
-0 0 0 0 0 0 0 0 -0 0 -0 0 0 0 0 0 0 0 0 0 0 0 0 0 0 0 0 0 0 0 0 0 0 0 0 -0 0 0 0 0 0 0 0 0 0 0 0 0 0
0 0 -0 0 0 0 0 0 0 0 -0 0 0 -0 0 0 0 0 0 0 0 0 0 0 0 0 0 0 0 0 0 0 0 0 0 0 0 0 0 0 0 0 0 0 0 0 0 0 0
0 -0 0 0 0 0 0 0 0 0 -0 0 0 0 0 0 0 0 0 0 0 0 0 0 0 0 0 0 0 0 0 0 0 0 0 0 0 0 0 0 0 0 0 0 0 0 0 0 0
0 -0 0 0 0 0 0 0 0 -0 0 0 0 0 0 0 0 0 0 0 0 0 0 0 1 0 0 0 0 0 0 0 0 0 0 0 0 0 0 0 0 0 0 0 0 0 0 0 0
0 0 0 0 0 0 0 0 0 -0 0 0 0 0 0 -0 -0 -0 0 0 0 0 0 0 0 0 0 0 -0 0 0 0 0 0 0 0 0 0 0 0 0 0 0 0 0 0 0 0 0
0 0 0 -0 0 0 0 0 0 0 -0 -0 0 -0 -0 -0 -0 -0 -0 -0 -0 0 0 0 0 0 0 0 0 0 0 0 0 0 0 0 0 0 0 0 0 0 0 0 0 0 0 -0 -0
Wind_Speed_500mb
25 20 16 12 10 11 6 8 6 5 6 7 20 11 19 16 3 4 17 10 8 6 4 6 10 12 18 25 30 32 38 44 46 57 59 54 47 47 43 41 39 34 33 31 28 27 25 25 23
21 15 13 10 10 8 7 12 15 13 18 45 32 22 17 7 7 22 18 16 8 5 5 5 9 18 24 29 33 37 42 45 47 58 61 51 45 40 36 37 36 34 31 31 32 33 37 38 39
9 4 2 7 6 7 8 6 12 17 5 9 14 20 9 6 17 20 25 17 9 14 11 9 2 20 31 33 37 41 45 48 58 60 58 45 41 33 30 29 29 29 31 35 39 41 41 32 31
6 3 10 8 10 5 9 10 23 19 28 34 24 13 14 15 9 20 27 18 15 17 20 20 8 21 36 38 41 44 49 53 59 58 49 41 37 32 28 30 33 33 35 40 40 37 31 29 27
8 8 9 7 7 6 9 21 12 10 12 29 29 9 10 10 17 30 25 18 18 21 21 20 16 24 34 38 43 46 51 55 55 53 42 40 36 32 32 30 31 36 39 38 36 36 30 27 23
5 7 9 6 8 9 7 16 25 31 32 35 22 11 9 17 18 30 23 19 22 24 23 22 19 19 27 37 45 52 56 56 57 48 43 43 35 32 41 29 36 36 38 36 34 32 27 21 19
10 9 3 6 8 7 6 21 13 23 26 12 14 8 9 19 19 29 22 19 20 24 26 22 20 17 23 33 42 53 57 58 51 49 36 36 33 36 34 32 34 33 37 35 32 28 23 15 14
11 8 5 5 10 5 15 7 25 26 12 35 21 11 10 27 27 29 22 17 16 20 25 26 21 20 19 28 29 51 33 48 46 40 33 29 31 33 33 30 29 32 33 32 27 23 17 11 10
12 9 5 10 12 10 24 11 17 11 32 11 7 32 33 32 32 31 26 22 18 17 19 25 26 22 25 26 34 46 41 49 42 40 32 26 37 32 30 29 30 27 29 29 25 20 14 8 5
9 8 13 12 13 18 24 19 23 15 21 12 31 27 35 33 35 32 27 25 22 20 19 23 27 26 28 31 30 35 42 42 47 38 31 37 40 29 28 27 24 24 25 24 21 20 17 13 9
5 6 4 4 23 44 28 16 20 30 5 19 48 44 39 34 33 30 24 20 18 19 22 22 25 28 27 26 28 33 40 43 39 34 40 49 41 23 20 21 22 22 23 21 20 19 17 14 12
7 6 5 21 38 35 27 35 11 14 4 34 38 40 40 39 36 34 29 27 23 23 25 26 24 28 31 34 32 36 35 35 46 42 44 39 21 17 17 16 18 19 16 17 20 16 14 11 11
5 5 10 36 38 41 40 21 12 10 17 35 38 39 41 39 35 33 30 28 25 25 27 25 24 28 29 31 37 35 25 30 37 48 39 25 18 15 13 10 10 10 11 14 17 14 14 14 16
9 24 31 41 35 31 25 13 12 16 30 37 41 43 43 41 38 35 36 33 28 23 24 26 25 28 30 26 28 38 39 39 34 30 30 13 14 9 10 11 9 9 8 12 17 20 22 22 24
19 30 23 15 22 12 35 4 5 34 35 42 45 44 45 46 41 39 33 35 30 25 23 26 27 24 27 26 23 24 29 28 23 20 17 10 13 10 9 9 9 11 11 13 18 22 25 29 31
10 11 9 4 12 14 6 6 6 37 43 40 43 45 44 44 47 42 35 34 33 31 27 27 28 27 26 30 23 22 19 18 17 17 14 18 20 18 15 14 13 14 18 23 24 26 28 32 34
11 6 8 7 3 9 7 6 18 38 44 47 51 45 48 46 45 49 39 36 36 33 29 25 32 29 27 26 28 25 22 15 16 18 17 20 21 21 19 17 16 24 26 28 28 30 35 38 38
11 10 2 9 10 6 5 12 9 34 40 45 48 47 47 46 48 41 43 33 34 34 30 26 30 30 27 25 28 29 26 23 21 19 21 21 18 23 28 26 27 28 27 27 31 37 37 39 31
17 15 10 3 8 9 8 11 14 30 36 31 41 48 51 51 48 44 47 38 36 33 33 29 28 26 31 32 33 33 30 27 25 20 16 18 21 21 24 24 28 31 30 27 27 34 30 31 29
13 14 12 5 12 8 4 10 13 13 20 43 47 48 49 44 45 44 46 44 45 37 26 29 27 26 31 34 28 30 28 27 27 24 23 21 24 26 29 26 30 29 25 22 24 27 32 28 25
7 12 10 11 14 12 10 12 5 7 18 31 47 50 46 48 48 48 50 50 49 46 29 15 28 28 27 30 30 30 31 28 25 24 22 19 23 24 25 27 27 25 27 22 25 26 32 30 23
8 12 13 24 8 8 3 5 10 11 13 15 43 43 51 53 52 49 49 50 55 54 42 22 21 38 28 27 29 28 26 22 20 18 17 17 20 19 21 24 25 26 27 28 30 31 35 34 32
5 24 15 9 12 9 6 8 13 7 12 19 34 52 56 60 59 56 54 44 47 49 50 37 26 35 31 31 31 28 26 21 14 16 20 17 20 21 20 19 19 22 24 26 30 32 36 36 37
21 16 16 10 7 4 8 6 10 10 18 10 33 56 57 64 63 65 57 53 54 56 55 56 42 34 41 35 29 29 24 20 21 19 18 18 19 19 21 19 21 26 27 30 31 30 32 33 34
7 13 7 6 5 8 4 3 17 12 13 22 26 53 56 58 61 63 65 58 55 57 57 56 52 44 38 37 34 30 24 22 24 22 21 20 19 20 19 22 24 28 30 32 33 33 31 32 35
6 8 11 12 9 7 11 10 9 11 20 44 44 35 28 38 51 53 59 56 45 49 54 54 51 49 43 39 34 32 31 30 28 27 27 26 26 26 27 29 32 32 27 29 29 30 33 38 35
10 8 8 14 5 6 5 12 16 5 10 17 25 23 33 32 31 38 46 49 38 37 34 44 39 43 46 42 36 35 33 34 36 34 34 33 33 33 33 37 38 35 40 39 35 34 35 32 32
11 17 6 6 8 4 7 9 8 5 12 9 12 23 23 20 22 29 32 37 36 32 31 29 30 35 31 37 31 30 36 38 39 44 47 49 47 46 43 42 39 42 37 37 34 36 37 39 33
4 3 6 10 8 10 6 11 14 18 17 17 19 17 17 17 19 20 19 20 22 26 25 28 30 27 28 34 39 41 41 41 43 44 46 48 45 45 47 47 42 47 47 43 44 54 42 44 35
8 14 12 10 10 3 7 10 4 11 17 24 21 16 17 17 16 14 11 12 16 16 15 19 18 18 20 24 27 31 36 38 39 36 35 38 39 38 47 53 50 46 53 40 40 40 33 36 35
Wind_Direction_500mb
112 75 47 40 55 61 26 3 4 43 68 358 127 129 111 42 23 149 132 102 116 165 147 192 191 184 170 164 154 150 148 149 148 147 146 139 137 137 135 132 131 130 126 129 130 130 130 125 125
94 68 51 30 76 58 356 339 67 67 120 101 82 89 59 62 61 127 124 123 136 59 65 173 201 196 180 171 161 152 147 148 154 150 146 138 136 133 131 131 130 128 126 130 130 128 118 116 114
50 105 349 84 94 136 145 311 111 138 88 95 105 69 69 68 111 130 128 123 96 70 79 49 178 193 182 172 164 157 151 153 151 147 147 142 138 136 132 136 140 132 130 128 129 126 120 117 111
168 168 69 73 77 64 130 159 125 100 76 79 93 65 66 97 104 133 126 106 74 80 68 45 89 156 171 169 166 162 153 153 153 152 151 149 145 137 131 129 133 133 129 132 129 126 122 122 113
37 58 59 82 49 65 86 126 114 60 76 77 99 89 66 72 122 136 123 100 80 74 75 71 82 142 162 167 167 162 157 155 152 150 151 154 148 137 129 127 134 132 134 134 131 125 125 119 109
40 82 61 66 72 60 44 125 92 89 92 92 75 68 47 118 135 138 125 106 82 72 73 84 81 128 160 170 170 165 157 154 153 153 151 151 142 129 121 130 134 139 138 139 134 131 132 120 112
103 75 86 78 98 76 98 122 101 109 100 59 125 68 121 147 148 144 134 112 93 76 66 75 98 116 153 168 173 168 152 153 156 148 146 145 138 137 132 134 136 140 148 148 145 143 144 129 103
96 88 72 71 147 119 146 108 125 106 86 127 105 143 177 166 155 152 145 133 102 80 71 71 94 121 141 149 156 118 146 153 147 147 139 139 135 133 141 136 141 144 154 158 161 160 158 145 105
109 73 140 152 169 153 147 130 149 118 139 116 59 151 149 153 159 160 160 153 136 108 89 76 75 98 124 132 127 138 154 155 153 148 149 140 139 134 144 141 143 149 158 163 171 178 180 193 157
68 99 202 193 155 150 148 142 131 124 128 72 121 142 157 159 162 164 164 160 153 131 106 88 77 85 116 127 134 139 146 149 157 160 142 151 140 134 139 141 146 151 155 160 169 181 194 204 216
115 104 339 104 134 138 134 115 129 134 112 162 150 159 166 165 166 168 165 154 148 140 117 105 89 86 103 127 138 138 141 144 150 154 154 139 125 135 143 147 147 150 157 158 161 162 168 181 203
69 37 115 124 133 130 136 136 126 149 194 169 165 168 172 178 178 175 171 159 158 145 139 127 116 106 99 106 129 140 144 144 145 139 126 126 135 147 141 144 152 155 163 168 165 171 184 210 233
64 3 75 132 132 134 134 137 141 201 156 168 172 179 186 189 189 188 183 177 171 167 151 139 131 128 118 107 117 131 131 139 161 126 139 141 149 130 126 147 159 161 179 193 203 222 243 258 261
65 83 110 113 118 130 120 132 136 170 162 169 179 189 197 200 201 200 200 193 189 184 168 155 142 150 146 128 130 128 125 129 130 136 155 158 176 141 155 175 187 208 210 217 229 253 261 265 269
46 83 74 66 114 98 106 51 207 169 172 175 188 197 203 211 214 216 215 208 198 201 188 177 162 156 165 147 144 160 155 157 165 157 182 206 219 234 236 231 237 232 238 236 251 264 272 271 269
47 50 78 301 107 144 77 246 267 177 182 183 197 209 212 223 228 226 228 227 211 211 210 196 188 181 171 176 169 169 182 186 181 194 221 233 237 245 250 258 252 258 274 266 271 276 281 278 280
354 139 103 116 268 118 84 240 238 192 191 200 208 212 220 229 234 236 235 234 223 219 219 217 209 203 192 190 197 194 194 204 217 232 244 237 244 245 255 269 275 281 283 276 278 287 289 291 282
163 125 109 164 203 146 139 215 281 201 203 210 215 223 230 235 241 244 233 235 231 227 227 229 228 223 211 209 212 214 219 223 221 231 241 235 246 249 259 271 280 281 282 289 289 288 291 287 288
137 127 154 203 188 106 214 187 234 202 214 228 231 233 237 241 248 242 234 229 232 231 231 230 227 230 223 221 219 216 227 241 236 240 242 238 249 256 261 269 263 271 279 293 298 295 299 312 298
119 141 184 119 146 104 185 233 264 182 226 231 236 237 239 237 235 231 231 230 232 230 223 228 229 219 224 223 224 235 242 249 246 243 247 250 252 254 267 272 277 282 288 307 304 303 306 309 307
165 150 176 141 113 48 104 325 247 244 231 245 247 245 236 224 222 228 229 235 231 234 232 230 239 228 223 228 233 239 231 244 249 248 253 255 259 261 264 270 279 292 294 312 311 309 312 306 297
151 194 124 131 95 151 69 235 283 216 244 232 249 232 221 224 227 227 227 235 234 230 228 220 228 230 225 222 230 233 238 260 267 264 262 266 264 269 275 277 285 298 306 314 314 315 319 310 304
93 100 105 89 85 94 320 82 267 134 220 244 244 242 227 225 229 227 228 238 237 234 223 226 232 220 225 225 238 241 247 255 270 269 259 258 258 269 273 267 270 281 293 304 309 313 318 310 302
135 85 58 55 92 40 230 134 274 192 207 227 237 244 240 233 233 237 237 237 235 239 233 225 232 222 226 230 242 245 249 253 254 249 258 276 275 282 292 285 291 287 296 298 299 307 313 306 296
108 83 26 16 20 216 46 83 241 225 227 207 222 242 241 243 239 237 239 240 241 239 242 233 232 235 230 231 239 247 252 251 251 253 266 283 284 279 284 282 285 300 298 295 297 298 304 309 303
143 130 148 178 182 202 70 232 255 222 224 216 235 253 256 250 247 243 243 245 249 246 245 245 242 241 238 240 244 248 248 248 250 255 265 272 278 283 278 283 280 281 271 270 270 272 289 301 308
193 214 150 111 15 83 232 290 318 122 134 199 231 248 253 258 251 247 243 247 249 250 256 256 254 254 248 248 254 256 257 256 256 261 268 274 279 286 285 287 281 279 282 289 288 280 272 272 290
132 154 73 11 126 151 308 285 203 154 204 208 191 224 252 253 236 240 242 245 249 256 255 259 263 256 257 253 258 265 269 272 278 275 275 276 279 282 284 284 283 284 292 291 297 288 271 264 271
118 119 58 117 115 143 145 261 215 194 196 191 213 220 231 196 202 214 225 237 248 252 256 255 258 260 251 247 251 261 268 273 277 282 279 280 281 284 285 283 283 284 283 297 288 303 283 265 258
139 165 185 124 209 57 133 257 271 233 202 188 199 196 205 190 182 170 178 206 212 228 232 239 241 247 253 256 261 266 268 271 271 281 279 281 281 279 285 288 288 286 284 291 286 294 289 269 257
Wind_Speed_850mb
25 20 16 12 10 11 6 8 6 5 6 7 20 11 19 16 3 4 17 10 8 6 4 6 10 12 18 25 30 32 38 44 46 57 59 54 47 47 43 41 39 34 33 31 28 27 25 25 23
21 15 13 10 10 8 7 12 15 13 18 45 32 22 17 7 7 22 18 16 8 5 5 5 9 18 24 29 33 37 42 45 47 58 61 51 45 40 36 37 36 34 31 31 32 33 37 38 39
9 4 2 7 6 7 8 6 12 17 5 9 14 20 9 6 17 20 25 17 9 14 11 9 2 20 31 33 37 41 45 48 58 60 58 45 41 33 30 29 29 29 31 35 39 41 41 32 31
6 3 10 8 10 5 9 10 23 19 28 34 24 13 14 15 9 20 27 18 15 17 20 20 8 21 36 38 41 44 49 53 59 58 49 41 37 32 28 30 33 33 35 40 40 37 31 29 27
8 8 9 7 7 6 9 21 12 10 12 29 29 9 10 10 17 30 25 18 18 21 21 20 16 24 34 38 43 46 51 55 55 53 42 40 36 32 32 30 31 36 39 38 36 36 30 27 23
5 7 9 6 8 9 7 16 25 31 32 35 22 11 9 17 18 30 23 19 22 24 23 22 19 19 27 37 45 52 56 56 57 48 43 43 35 32 41 29 36 36 38 36 34 32 27 21 19
10 9 3 6 8 7 6 21 13 23 26 12 14 8 9 19 19 29 22 19 20 24 26 22 20 17 23 33 42 53 57 58 51 49 36 36 33 36 34 32 34 33 37 35 32 28 23 15 14
11 8 5 5 10 5 15 7 25 26 12 35 21 11 10 27 27 29 22 17 16 20 25 26 21 20 19 28 29 51 33 48 46 40 33 29 31 33 33 30 29 32 33 32 27 23 17 11 10
12 9 5 10 12 10 24 11 17 11 32 11 7 32 33 32 32 31 26 22 18 17 19 25 26 22 25 26 34 46 41 49 42 40 32 26 37 32 30 29 30 27 29 29 25 20 14 8 5
9 8 13 12 13 18 24 19 23 15 21 12 31 27 35 33 35 32 27 25 22 20 19 23 27 26 28 31 30 35 42 42 47 38 31 37 40 29 28 27 24 24 25 24 21 20 17 13 9
5 6 4 4 23 44 28 16 20 30 5 19 48 44 39 34 33 30 24 20 18 19 22 22 25 28 27 26 28 33 40 43 39 34 40 49 41 23 20 21 22 22 23 21 20 19 17 14 12
7 6 5 21 38 35 27 35 11 14 4 34 38 40 40 39 36 34 29 27 23 23 25 26 24 28 31 34 32 36 35 35 46 42 44 39 21 17 17 16 18 19 16 17 20 16 14 11 11
5 5 10 36 38 41 40 21 12 10 17 35 38 39 41 39 35 33 30 28 25 25 27 25 24 28 29 31 37 35 25 30 37 48 39 25 18 15 13 10 10 10 11 14 17 14 14 14 16
9 24 31 41 35 31 25 13 12 16 30 37 41 43 43 41 38 35 36 33 28 23 24 26 25 28 30 26 28 38 39 39 34 30 30 13 14 9 10 11 9 9 8 12 17 20 22 22 24
19 30 23 15 22 12 35 4 5 34 35 42 45 44 45 46 41 39 33 35 30 25 23 26 27 24 27 26 23 24 29 28 23 20 17 10 13 10 9 9 9 11 11 13 18 22 25 29 31
10 11 9 4 12 14 6 6 6 37 43 40 43 45 44 44 47 42 35 34 33 31 27 27 28 27 26 30 23 22 19 18 17 17 14 18 20 18 15 14 13 14 18 23 24 26 28 32 34
11 6 8 7 3 9 7 6 18 38 44 47 51 45 48 46 45 49 39 36 36 33 29 25 32 29 27 26 28 25 22 15 16 18 17 20 21 21 19 17 16 24 26 28 28 30 35 38 38
11 10 2 9 10 6 5 12 9 34 40 45 48 47 47 46 48 41 43 33 34 34 30 26 30 30 27 25 28 29 26 23 21 19 21 21 18 23 28 26 27 28 27 27 31 37 37 39 31
17 15 10 3 8 9 8 11 14 30 36 31 41 48 51 51 48 44 47 38 36 33 33 29 28 26 31 32 33 33 30 27 25 20 16 18 21 21 24 24 28 31 30 27 27 34 30 31 29
13 14 12 5 12 8 4 10 13 13 20 43 47 48 49 44 45 44 46 44 45 37 26 29 27 26 31 34 28 30 28 27 27 24 23 21 24 26 29 26 30 29 25 22 24 27 32 28 25
7 12 10 11 14 12 10 12 5 7 18 31 47 50 46 48 48 48 50 50 49 46 29 15 28 28 27 30 30 30 31 28 25 24 22 19 23 24 25 27 27 25 27 22 25 26 32 30 23
8 12 13 24 8 8 3 5 10 11 13 15 43 43 51 53 52 49 49 50 55 54 42 22 21 38 28 27 29 28 26 22 20 18 17 17 20 19 21 24 25 26 27 28 30 31 35 34 32
5 24 15 9 12 9 6 8 13 7 12 19 34 52 56 60 59 56 54 44 47 49 50 37 26 35 31 31 31 28 26 21 14 16 20 17 20 21 20 19 19 22 24 26 30 32 36 36 37
21 16 16 10 7 4 8 6 10 10 18 10 33 56 57 64 63 65 57 53 54 56 55 56 42 34 41 35 29 29 24 20 21 19 18 18 19 19 21 19 21 26 27 30 31 30 32 33 34
7 13 7 6 5 8 4 3 17 12 13 22 26 53 56 58 61 63 65 58 55 57 57 56 52 44 38 37 34 30 24 22 24 22 21 20 19 20 19 22 24 28 30 32 33 33 31 32 35
6 8 11 12 9 7 11 10 9 11 20 44 44 35 28 38 51 53 59 56 45 49 54 54 51 49 43 39 34 32 31 30 28 27 27 26 26 26 27 29 32 32 27 29 29 30 33 38 35
10 8 8 14 5 6 5 12 16 5 10 17 25 23 33 32 31 38 46 49 38 37 34 44 39 43 46 42 36 35 33 34 36 34 34 33 33 33 33 37 38 35 40 39 35 34 35 32 32
11 17 6 6 8 4 7 9 8 5 12 9 12 23 23 20 22 29 32 37 36 32 31 29 30 35 31 37 31 30 36 38 39 44 47 49 47 46 43 42 39 42 37 37 34 36 37 39 33
4 3 6 10 8 10 6 11 14 18 17 17 19 17 17 17 19 20 19 20 22 26 25 28 30 27 28 34 39 41 41 41 43 44 46 48 45 45 47 47 42 47 47 43 44 54 42 44 35
8 14 12 10 10 3 7 10 4 11 17 24 21 16 17 17 16 14 11 12 16 16 15 19 18 18 20 24 27 31 36 38 39 36 35 38 39 38 47 53 50 46 53 40 40 40 33 36 35
Wind_Direction_850mb
112 75 47 40 55 61 26 3 4 43 68 358 127 129 111 42 23 149 132 102 116 165 147 192 191 184 170 164 154 150 148 149 148 147 146 139 137 137 135 132 131 130 126 129 130 130 130 125 125
94 68 51 30 76 58 356 339 67 67 120 101 82 89 59 62 61 127 124 123 136 59 65 173 201 196 180 171 161 152 147 148 154 150 146 138 136 133 131 131 130 128 126 130 130 128 118 116 114
50 105 349 84 94 136 145 311 111 138 88 95 105 69 69 68 111 130 128 123 96 70 79 49 178 193 182 172 164 157 151 153 151 147 147 142 138 136 132 136 140 132 130 128 129 126 120 117 111
168 168 69 73 77 64 130 159 125 100 76 79 93 65 66 97 104 133 126 106 74 80 68 45 89 156 171 169 166 162 153 153 153 152 151 149 145 137 131 129 133 133 129 132 129 126 122 122 113
37 58 59 82 49 65 86 126 114 60 76 77 99 89 66 72 122 136 123 100 80 74 75 71 82 142 162 167 167 162 157 155 152 150 151 154 148 137 129 127 134 132 134 134 131 125 125 119 109
40 82 61 66 72 60 44 125 92 89 92 92 75 68 47 118 135 138 125 106 82 72 73 84 81 128 160 170 170 165 157 154 153 153 151 151 142 129 121 130 134 139 138 139 134 131 132 120 112
103 75 86 78 98 76 98 122 101 109 100 59 125 68 121 147 148 144 134 112 93 76 66 75 98 116 153 168 173 168 152 153 156 148 146 145 138 137 132 134 136 140 148 148 145 143 144 129 103
96 88 72 71 147 119 146 108 125 106 86 127 105 143 177 166 155 152 145 133 102 80 71 71 94 121 141 149 156 118 146 153 147 147 139 139 135 133 141 136 141 144 154 158 161 160 158 145 105
109 73 140 152 169 153 147 130 149 118 139 116 59 151 149 153 159 160 160 153 136 108 89 76 75 98 124 132 127 138 154 155 153 148 149 140 139 134 144 141 143 149 158 163 171 178 180 193 157
68 99 202 193 155 150 148 142 131 124 128 72 121 142 157 159 162 164 164 160 153 131 106 88 77 85 116 127 134 139 146 149 157 160 142 151 140 134 139 141 146 151 155 160 169 181 194 204 216
115 104 339 104 134 138 134 115 129 134 112 162 150 159 166 165 166 168 165 154 148 140 117 105 89 86 103 127 138 138 141 144 150 154 154 139 125 135 143 147 147 150 157 158 161 162 168 181 203
69 37 115 124 133 130 136 136 126 149 194 169 165 168 172 178 178 175 171 159 158 145 139 127 116 106 99 106 129 140 144 144 145 139 126 126 135 147 141 144 152 155 163 168 165 171 184 210 233
64 3 75 132 132 134 134 137 141 201 156 168 172 179 186 189 189 188 183 177 171 167 151 139 131 128 118 107 117 131 131 139 161 126 139 141 149 130 126 147 159 161 179 193 203 222 243 258 261
65 83 110 113 118 130 120 132 136 170 162 169 179 189 197 200 201 200 200 193 189 184 168 155 142 150 146 128 130 128 125 129 130 136 155 158 176 141 155 175 187 208 210 217 229 253 261 265 269
46 83 74 66 114 98 106 51 207 169 172 175 188 197 203 211 214 216 215 208 198 201 188 177 162 156 165 147 144 160 155 157 165 157 182 206 219 234 236 231 237 232 238 236 251 264 272 271 269
47 50 78 301 107 144 77 246 267 177 182 183 197 209 212 223 228 226 228 227 211 211 210 196 188 181 171 176 169 169 182 186 181 194 221 233 237 245 250 258 252 258 274 266 271 276 281 278 280
354 139 103 116 268 118 84 240 238 192 191 200 208 212 220 229 234 236 235 234 223 219 219 217 209 203 192 190 197 194 194 204 217 232 244 237 244 245 255 269 275 281 283 276 278 287 289 291 282
163 125 109 164 203 146 139 215 281 201 203 210 215 223 230 235 241 244 233 235 231 227 227 229 228 223 211 209 212 214 219 223 221 231 241 235 246 249 259 271 280 281 282 289 289 288 291 287 288
137 127 154 203 188 106 214 187 234 202 214 228 231 233 237 241 248 242 234 229 232 231 231 230 227 230 223 221 219 216 227 241 236 240 242 238 249 256 261 269 263 271 279 293 298 295 299 312 298
119 141 184 119 146 104 185 233 264 182 226 231 236 237 239 237 235 231 231 230 232 230 223 228 229 219 224 223 224 235 242 249 246 243 247 250 252 254 267 272 277 282 288 307 304 303 306 309 307
165 150 176 141 113 48 104 325 247 244 231 245 247 245 236 224 222 228 229 235 231 234 232 230 239 228 223 228 233 239 231 244 249 248 253 255 259 261 264 270 279 292 294 312 311 309 312 306 297
151 194 124 131 95 151 69 235 283 216 244 232 249 232 221 224 227 227 227 235 234 230 228 220 228 230 225 222 230 233 238 260 267 264 262 266 264 269 275 277 285 298 306 314 314 315 319 310 304
93 100 105 89 85 94 320 82 267 134 220 244 244 242 227 225 229 227 228 238 237 234 223 226 232 220 225 225 238 241 247 255 270 269 259 258 258 269 273 267 270 281 293 304 309 313 318 310 302
135 85 58 55 92 40 230 134 274 192 207 227 237 244 240 233 233 237 237 237 235 239 233 225 232 222 226 230 242 245 249 253 254 249 258 276 275 282 292 285 291 287 296 298 299 307 313 306 296
108 83 26 16 20 216 46 83 241 225 227 207 222 242 241 243 239 237 239 240 241 239 242 233 232 235 230 231 239 247 252 251 251 253 266 283 284 279 284 282 285 300 298 295 297 298 304 309 303
143 130 148 178 182 202 70 232 255 222 224 216 235 253 256 250 247 243 243 245 249 246 245 245 242 241 238 240 244 248 248 248 250 255 265 272 278 283 278 283 280 281 271 270 270 272 289 301 308
193 214 150 111 15 83 232 290 318 122 134 199 231 248 253 258 251 247 243 247 249 250 256 256 254 254 248 248 254 256 257 256 256 261 268 274 279 286 285 287 281 279 282 289 288 280 272 272 290
132 154 73 11 126 151 308 285 203 154 204 208 191 224 252 253 236 240 242 245 249 256 255 259 263 256 257 253 258 265 269 272 278 275 275 276 279 282 284 284 283 284 292 291 297 288 271 264 271
118 119 58 117 115 143 145 261 215 194 196 191 213 220 231 196 202 214 225 237 248 252 256 255 258 260 251 247 251 261 268 273 277 282 279 280 281 284 285 283 283 284 283 297 288 303 283 265 258
139 165 185 124 209 57 133 257 271 233 202 188 199 196 205 190 182 170 178 206 212 228 232 239 241 247 253 256 261 266 268 271 271 281 279 281 281 279 285 288 288 286 284 291 286 294 289 269 257